[[{"header":{"parameterUnit":"m.s-1","parameterCategory":1,"la1":30.2991,"la2":30.254,"lo1":-89.0895,"lo2":-89.0444,"dy":0.0017,"dx":0.0017,"nx":28,"ny":28,"refTime":"2023-08-21T03:00:00:Z","depth":0,"parameterNumber":2,"parameterNumberName":"U-component_of_WINDS"},"data":[0,0,0,0,0,0,0,0,0,0,0,0,0,0,0,0,0,0,0,0,0,0,0,0,0,0,0,0,0,0,0,0,0,0,0,0,0,0,0,0,0,0,0,0,0,0,0,0,0,0,0,0,0,0,0,0,0,0,-7.5615,-7.5614,0,-7.5605,-7.5605,-7.5605,-7.5468,-7.5465,-7.5461,-7.5458,-7.5449,-7.5452,-7.5455,0,0,0,0,0,0,0,0,0,0,0,0,0,-7.5518,-7.5521,-7.5615,-7.5614,-7.5614,-7.5605,-7.5605,-7.5605,-7.5469,-7.5465,-7.546,-7.5456,-7.5448,-7.5451,-7.5455,0,0,0,0,0,0,0,0,0,0,0,0,0,-7.554,-7.5522,-7.5615,-7.5545,-7.5539,-7.5605,-7.5605,-7.5605,-7.547,-7.5465,-7.5459,-7.5454,-7.5447,-7.5451,-7.5455,-7.5587,0,0,-7.5469,-7.5471,0,0,0,0,0,0,0,0,-7.5539,-7.5543,-7.5556,-7.555,-7.5543,-7.5532,-7.5567,-7.5599,-7.5471,-7.5496,-7.5458,-7.5452,-7.5481,-7.5482,-7.5492,-7.5587,-7.5586,-7.5469,-7.5472,-7.5474,-7.5475,0,0,0,0,0,0,0,-7.5537,-7.5543,-7.5611,-7.5556,-7.5549,-7.5516,-7.5513,-7.5573,-7.5518,-7.5494,-7.5484,-7.5484,-7.5476,-7.5488,-7.5491,-7.5586,-7.5469,-7.5473,-7.5476,-7.5478,-7.5791,-7.5796,0,0,0,0,0,0,-7.5545,-7.5543,-7.5611,-7.561,-7.5528,-7.5522,-7.5519,-7.5541,-7.5517,-7.5508,-7.5489,-7.5478,-7.5483,-7.5486,-7.549,-7.5642,-7.5474,-7.5478,-7.5481,-7.5785,-7.5792,-7.5798,0,0,0,0,0,0,-7.5544,-7.5553,-7.5611,-7.5574,-7.5579,-7.5529,-7.5555,-7.5544,-7.5555,-7.5513,-7.5503,-7.551,-7.5479,-7.5483,-7.5564,-7.564,-7.548,-7.5484,-7.5779,-7.5788,-7.5795,-7.5949,0,0,0,0,0,0,-7.5541,-7.5553,-7.5601,-7.5576,-7.5581,-7.5685,-7.556,-7.5547,-7.5563,-7.5549,-7.553,-7.5522,-7.5475,-7.5558,-7.5569,-7.5643,-7.5488,-7.5772,-7.5783,-7.5793,-7.5937,-7.5962,-7.5983,0,0,0,0,0,-7.5538,-7.5644,-7.5604,-7.5613,-7.5641,-7.569,-7.5693,-7.5636,-7.557,-7.5618,-7.5592,-7.5523,-7.5632,-7.5568,-7.5578,-7.5656,-7.5767,-7.578,-7.5792,-7.5927,-7.5957,-7.5983,0,0,0,0,0,0,-7.5678,-7.5639,-7.5594,-7.5695,-7.5697,-7.5667,-7.5726,-7.567,-7.569,-7.5676,-7.5605,-7.5602,-7.5695,-7.5684,-7.5614,-7.5783,-7.5687,-7.5703,-7.5786,-7.5815,-7.5837,-7.5836,-7.5492,0,0,0,0,0,-7.5721,-7.5764,-7.5728,-7.582,-7.5824,-7.5776,-7.5795,-7.5752,-7.575,-7.575,-7.573,-7.5732,-7.5767,-7.579,-7.582,-7.5937,-7.5931,-7.5995,-7.6019,-7.6038,-7.6051,-7.6113,-7.6141,-7.584,-7.584,-7.584,0,0,-7.5809,-7.5793,-7.5824,-7.5848,-7.5844,-7.5891,-7.5777,-7.583,-7.5864,-7.5758,-7.5833,-7.582,-7.5817,-7.5917,-7.596,-7.5911,-7.6134,-7.6054,-7.6069,-7.6072,-7.6129,-7.6158,-7.6183,-7.5849,-7.5847,-7.5846,0,0,-7.5992,-7.5986,-7.6062,-7.6062,-7.6058,-7.6026,-7.6046,-7.6025,-7.6012,-7.6086,-7.6008,-7.605,-7.611,-7.6112,-7.6121,-7.6313,-7.625,-7.6325,-7.6444,-7.6506,-7.6529,-7.655,-7.6618,-7.6643,-7.6339,-7.6339,-7.634,0,-7.6102,-7.6168,-7.6108,-7.6168,-7.6182,-7.609,-7.6168,-7.6171,-7.6178,-7.619,-7.6135,-7.6212,-7.6204,-7.6303,-7.6351,-7.6362,-7.6382,-7.6324,-7.6531,-7.6551,-7.6569,-7.6633,-7.6659,-7.6348,-7.6347,-7.6346,-7.6346,0,-7.6303,-7.6351,-7.6414,-7.6424,-7.6445,-7.6514,-7.6466,-7.6495,-7.6452,-7.6427,-7.6505,-7.6494,-7.652,-7.6542,-7.6499,-7.6637,-7.6606,-7.6543,-7.6444,-7.6608,-7.6667,-7.6691,-7.6361,-7.6358,-7.6355,-7.6353,0,0,-7.6568,-7.6548,-7.6572,-7.6576,-7.6569,-7.6605,-7.6672,-7.6698,-7.6725,-7.6735,-7.6789,-7.6845,-7.6787,-7.6798,-7.6756,-7.6811,-7.6964,-7.6741,-7.674,-7.6781,-7.7115,-7.7161,-7.719,-7.6925,-7.6929,-7.6933,-7.7115,0,-7.6744,-7.6855,-7.6806,-7.6922,-7.6966,-7.6884,-7.6942,-7.6944,-7.6924,-7.696,-7.6938,-7.6979,-7.69,-7.6906,-7.6957,-7.6935,-7.703,-7.6921,-7.6974,-7.6976,-7.6973,-7.7221,-7.7269,-7.7441,-7.7138,-7.7142,-7.7144,0,-7.6962,-7.6983,-7.7104,-7.7091,-7.7108,-7.7161,-7.7183,-7.7219,-7.7222,-7.7203,-7.7219,-7.7166,-7.7232,-7.7138,-7.7228,-7.7155,-7.7175,-7.7168,-7.7174,-7.7173,-7.7068,-7.7226,-7.7495,-7.752,-7.718,-7.7177,-7.7175,0,-7.7143,-7.7201,-7.7281,-7.7288,-7.7275,-7.7315,-7.7312,-7.7309,-7.733,-7.735,-7.7363,-7.7392,-7.7406,-7.743,-7.7387,-7.7323,-7.7485,-7.7386,-7.7471,-7.7472,-7.7505,-7.7503,-7.7779,-7.7523,-7.7523,-7.7522,-7.7522,0,-7.7342,-7.7419,-7.7362,-7.7411,-7.7496,-7.7441,-7.7527,-7.7515,-7.7515,-7.7561,-7.7493,-7.7538,-7.748,-7.752,-7.7488,-7.7568,-7.7576,-7.7563,-7.7553,-7.7567,-7.7569,-7.7576,-7.7562,-7.7529,-7.7527,-7.7526,-7.7525,0,-7.7555,-7.752,-7.7602,-7.7585,-7.7583,-7.7647,-7.7633,-7.7678,-7.7656,-7.7716,-7.7727,-7.7692,-7.7736,-7.7697,-7.7739,-7.7717,-7.7824,-7.7798,-7.7823,-7.7815,-7.7901,-7.7893,-7.8189,-7.8225,-7.7949,-7.7951,-7.7954,0,-7.7683,-7.774,-7.7732,-7.7758,-7.776,-7.7803,-7.7825,-7.7775,-7.78,-7.7811,-7.7856,-7.7895,-7.7922,-7.7998,-7.7976,-7.8009,-7.7982,-7.8084,-7.7986,-7.8,-7.7982,-7.7978,-7.7984,-7.8102,-7.8106,-7.8108,-7.8111,0,-7.7914,-7.7895,-7.7928,-7.7957,-7.7985,-7.8005,-7.802,-7.8046,-7.7995,-7.8028,-7.8073,-7.8095,-7.814,-7.818,-7.8207,-7.8204,-7.815,-7.8143,-7.8164,-7.8177,-7.8189,-7.8183,-7.7874,-7.8135,-7.8132,-7.8131,-7.8129,-7.8128,-7.8086,-7.8135,-7.8137,-7.8177,-7.8184,-7.8201,-7.8244,-7.8228,-7.8265,-7.8297,-7.8267,-7.8322,-7.8327,-7.8358,-7.8363,-7.8406,-7.8364,-7.8395,-7.8402,-7.841,-7.8422,-7.8185,-7.8411,-7.8411,-7.841,-7.8409,-7.8409,0,-7.8312,-7.8311,-7.8349,-7.8373,-7.8406,-7.8355,-7.837,-7.8401,-7.845,-7.846,-7.849,-7.8544,-7.8583,-7.8568,-7.8603,-7.8641,-7.8617,-7.8651,-7.8646,-7.8647,-7.8458,-7.8436,-7.867,-7.867,-7.867,-7.867,-7.867,-7.867,-7.8433,-7.8512,-7.8495,-7.8578,-7.8576,-7.863,-7.8643,-7.8659,-7.8667,-7.873,-7.8763,-7.8753,-7.8754,-7.8789,-7.8824,-7.8818,-7.8834,-7.8878,-7.8863,-7.8686,-7.866,-7.8635,-7.8614,-7.8882,-7.8882,-7.9048,-7.9049,-7.9051]},{"header":{"parameterUnit":"m.s-1","parameterCategory":1,"la1":30.2991,"la2":30.254,"lo1":-89.0895,"lo2":-89.0444,"dy":0.0017,"dx":0.0017,"nx":28,"ny":28,"refTime":"2023-08-21T03:00:00:Z","depth":0,"parameterNumber":3,"parameterNumberName":"V-component_of_WINDS"},"data":[0,0,0,0,0,0,0,0,0,0,0,0,0,0,0,0,0,0,0,0,0,0,0,0,0,0,0,0,0,0,0,0,0,0,0,0,0,0,0,0,0,0,0,0,0,0,0,0,0,0,0,0,0,0,0,0,0,0,2.1675,2.1676,0,2.1776,2.1777,2.1778,2.1877,2.1879,2.188,2.1881,2.1981,2.1982,2.1983,0,0,0,0,0,0,0,0,0,0,0,0,0,2.1567,2.1569,2.1675,2.1676,2.1677,2.1776,2.1777,2.1778,2.1877,2.1879,2.188,2.1882,2.198,2.1982,2.1983,0,0,0,0,0,0,0,0,0,0,0,0,0,2.1635,2.1569,2.1674,2.1739,2.1745,2.1775,2.1777,2.1779,2.1877,2.1879,2.1881,2.1883,2.198,2.1982,2.1984,2.1957,0,0,2.199,2.1991,0,0,0,0,0,0,0,0,2.1631,2.1639,2.1728,2.1734,2.1742,2.1816,2.1776,2.1838,2.1876,2.1827,2.1881,2.1884,2.1924,2.1931,2.1945,2.1962,2.1966,2.199,2.1992,2.1993,2.1993,0,0,0,0,0,0,0,2.1627,2.1635,2.1715,2.1729,2.1738,2.1762,2.1774,2.1788,2.1863,2.1831,2.1839,2.185,2.1928,2.1943,2.1948,2.1968,2.199,2.1992,2.1993,2.1994,2.1971,2.197,0,0,0,0,0,0,2.1612,2.1631,2.1711,2.1718,2.1691,2.1762,2.1776,2.179,2.1863,2.1876,2.1848,2.1854,2.1938,2.1946,2.1952,2.1928,2.1993,2.1995,2.1996,2.1973,2.1971,2.1969,0,0,0,0,0,0,2.161,2.1619,2.1707,2.1676,2.169,2.1762,2.1778,2.1791,2.1806,2.1876,2.1889,2.1849,2.194,2.1949,2.1956,2.1932,2.1995,2.1997,2.1975,2.1973,2.197,2.1877,0,0,0,0,0,0,2.1606,2.1617,2.1607,2.1675,2.1691,2.1709,2.1776,2.1792,2.181,2.1819,2.1881,2.1893,2.1942,2.1953,2.1958,2.1937,2.1999,2.1978,2.1974,2.1971,2.1883,2.1871,2.1862,0,0,0,0,0,2.1602,2.1576,2.1606,2.1615,2.1681,2.1708,2.1717,2.1776,2.1808,2.1799,2.1844,2.1891,2.1935,2.1953,2.196,2.1938,2.198,2.1975,2.1971,2.1887,2.1874,2.1862,0,0,0,0,0,0,2.15,2.1585,2.162,2.1615,2.1654,2.1725,2.1715,2.1759,2.1788,2.1795,2.1866,2.1879,2.1878,2.191,2.1928,2.1918,2.1964,2.1961,2.1897,2.1885,2.1875,2.1867,2.2001,0,0,0,0,0,2.1478,2.1493,2.1567,2.1555,2.1573,2.1641,2.1655,2.1698,2.174,2.1756,2.1802,2.184,2.1863,2.1876,2.1901,2.1889,2.1904,2.1878,2.1868,2.1859,2.1855,2.1853,2.1842,2.1955,2.1955,2.1955,0,0,2.143,2.1479,2.1484,2.1536,2.1571,2.1586,2.1653,2.1665,2.1677,2.1757,2.1767,2.1803,2.1851,2.1849,2.185,2.1874,2.1828,2.1853,2.1846,2.1847,2.1847,2.1837,2.1827,2.1952,2.1953,2.1953,0,0,2.1351,2.1389,2.1385,2.142,2.1473,2.1519,2.1518,2.1583,2.161,2.1622,2.1684,2.1699,2.1736,2.1769,2.179,2.1729,2.1773,2.1735,2.168,2.1677,2.1668,2.1661,2.164,2.1631,2.1731,2.1731,2.1731,0,2.1284,2.1309,2.1376,2.1386,2.1408,2.1485,2.1482,2.1512,2.1569,2.1583,2.161,2.1662,2.1699,2.1707,2.1692,2.1707,2.1708,2.1727,2.1665,2.1658,2.1652,2.1632,2.1624,2.1726,2.1726,2.1727,2.1727,0,2.1226,2.1243,2.1233,2.1289,2.1311,2.1313,2.1381,2.1395,2.1438,2.1481,2.1493,2.1542,2.1579,2.1585,2.1625,2.1599,2.1613,2.1651,2.1698,2.1635,2.1618,2.1611,2.1719,2.1721,2.1722,2.1723,0,0,2.108,2.1178,2.1173,2.1201,2.1268,2.1282,2.129,2.1329,2.1339,2.1378,2.1386,2.1419,2.1456,2.148,2.1526,2.1523,2.1473,2.1563,2.1565,2.1544,2.145,2.1419,2.1409,2.1505,2.1503,2.1502,2.1446,0,2.1012,2.1031,2.1094,2.1094,2.1111,2.1187,2.1194,2.1235,2.1277,2.1298,2.1345,2.1367,2.1414,2.143,2.1431,2.1479,2.1455,2.1484,2.1512,2.1512,2.1496,2.14,2.1368,2.1311,2.1439,2.1438,2.1437,0,2.0934,2.097,2.0972,2.1042,2.1051,2.1056,2.1099,2.1118,2.1168,2.1199,2.1228,2.128,2.1293,2.1339,2.1358,2.1377,2.1393,2.1418,2.1418,2.1421,2.1469,2.14,2.1295,2.1286,2.1427,2.1428,2.1429,0,2.0828,2.0878,2.0886,2.0908,2.0989,2.0991,2.1024,2.1077,2.1097,2.1135,2.1149,2.1186,2.1206,2.1235,2.1296,2.1323,2.1309,2.1359,2.1334,2.1333,2.1326,2.1325,2.122,2.1338,2.1338,2.1338,2.1338,0,2.0744,2.0742,2.084,2.0845,2.0846,2.092,2.0919,2.096,2.1006,2.1021,2.1089,2.1101,2.1182,2.1203,2.1252,2.1261,2.127,2.1295,2.1307,2.1288,2.1285,2.1298,2.1303,2.1336,2.1336,2.1337,2.1337,0,2.0625,2.069,2.0704,2.0782,2.0802,2.0799,2.0865,2.0873,2.0921,2.0939,2.0948,2.1022,2.1052,2.1117,2.1163,2.1196,2.1193,2.1216,2.1176,2.1184,2.1156,2.1157,2.1055,2.1045,2.1169,2.1168,2.1167,0,2.0566,2.0567,2.0646,2.0661,2.0693,2.0717,2.0739,2.0813,2.0834,2.0893,2.0894,2.093,2.0962,2.1006,2.1064,2.1101,2.1125,2.1087,2.113,2.1112,2.1124,2.1123,2.1124,2.1076,2.1074,2.1073,2.1072,0,2.0455,2.0489,2.0519,2.0561,2.0587,2.0623,2.0663,2.0672,2.0756,2.0775,2.0808,2.0833,2.0883,2.0917,2.0964,2.0999,2.1049,2.1058,2.1055,2.1034,2.1011,2.1023,2.1149,2.1059,2.106,2.1061,2.1062,2.1063,2.0364,2.037,2.0427,2.0459,2.0498,2.0535,2.0548,2.0599,2.0628,2.0675,2.0717,2.0746,2.0799,2.0867,2.09,2.0923,2.0948,2.0943,2.0941,2.0938,2.093,2.1008,2.0932,2.0933,2.0933,2.0933,2.0934,0,2.0257,2.0299,2.0328,2.0384,2.041,2.0458,2.0506,2.0524,2.0549,2.0596,2.0628,2.0666,2.0701,2.0764,2.0805,2.0812,2.0836,2.082,2.082,2.0827,2.0906,2.0905,2.08,2.08,2.08,2.08,2.08,2.08,2.0204,2.0217,2.0258,2.0291,2.0333,2.0363,2.0387,2.0422,2.046,2.05,2.0531,2.0573,2.0626,2.0672,2.0707,2.0725,2.0737,2.0713,2.0738,2.0809,2.0821,2.0833,2.0833,2.0715,2.0715,2.0658,2.0657,2.0657]}]]